ZKXXK NZWN-NZAP

Flight info

Callsign ZKXXK
Flight time 0h 32m
Altitude 27000
Route KAPTI Y273 DAGOM Y715 ARETI H116 SULFA
Aircraft C25A/L-SDFGRWY/S

Departure

Time 2026-04-17 06:45
Airport Wellington International Airport (NZWN)

Arrival

Time 2026-04-17 07:18
Airport Taupo Airport (NZAP)
Time Latitude Longitude Altitude Speed Heading
2026-04-17 06:39 -41.32454 174.80436 8 ft 0 kts 334°
2026-04-17 06:41 -41.32453 174.80436 8 ft 0 kts 334°
2026-04-17 06:42 -41.32445 174.80446 8 ft 7 kts 111°
2026-04-17 06:42 -41.32512 174.80469 8 ft 14 kts 95°
2026-04-17 06:42 -41.32533 174.80593 8 ft 7 kts 250°
2026-04-17 06:42 -41.32593 174.80563 8 ft 16 kts 182°
2026-04-17 06:43 -41.32680 174.80613 8 ft 16 kts 95°
2026-04-17 06:43 -41.32685 174.80740 8 ft 5 kts 95°
2026-04-17 06:43 -41.32766 174.80812 8 ft 26 kts 184°
2026-04-17 06:43 -41.32966 174.80799 8 ft 33 kts 184°
2026-04-17 06:44 -41.33208 174.80783 8 ft 34 kts 183°
2026-04-17 06:44 -41.33435 174.80769 8 ft 28 kts 181°
2026-04-17 06:44 -41.33573 174.80686 8 ft 19 kts 270°
2026-04-17 06:44 -41.33495 174.80636 8 ft 23 kts 360°
2026-04-17 06:45 -41.33029 174.80667 8 ft 109 kts
2026-04-17 06:45 -41.32094 174.80769 512 ft 145 kts
2026-04-17 06:45 -41.31079 174.80917 1668 ft 159 kts
2026-04-17 06:45 -41.29806 174.81065 2337 ft 204 kts
2026-04-17 06:46 -41.28300 174.81057 3278 ft 219 kts 356°
2026-04-17 06:46 -41.26797 174.80830 4407 ft 219 kts 346°
2026-04-17 06:46 -41.25284 174.80355 5595 ft 232 kts 342°
2026-04-17 06:46 -41.23691 174.79774 6870 ft 242 kts 341°
2026-04-17 06:47 -41.22045 174.79160 8196 ft 248 kts 341°
2026-04-17 06:47 -41.20375 174.78543 9523 ft 250 kts 341°
2026-04-17 06:47 -41.18689 174.77954 10832 ft 252 kts 342°
2026-04-17 06:47 -41.16923 174.77833 12129 ft 258 kts 356°
2026-04-17 06:48 -41.15118 174.78162 13241 ft 266 kts
2026-04-17 06:48 -41.13298 174.78714 14294 ft 271 kts
2026-04-17 06:48 -41.11463 174.79382 15270 ft 276 kts
2026-04-17 06:48 -41.09610 174.80112 16205 ft 280 kts
2026-04-17 06:49 -41.07738 174.80879 17092 ft 283 kts
2026-04-17 06:49 -41.05846 174.81669 17935 ft 287 kts
2026-04-17 06:49 -41.03932 174.82474 18733 ft 290 kts
2026-04-17 06:49 -41.01987 174.83292 19503 ft 295 kts
2026-04-17 06:50 -41.00019 174.84121 20267 ft 299 kts
2026-04-17 06:50 -40.98018 174.84964 20981 ft 304 kts
2026-04-17 06:50 -40.95993 174.85818 21674 ft 308 kts
2026-04-17 06:50 -40.93937 174.86685 22332 ft 312 kts
2026-04-17 06:51 -40.91861 174.87562 22964 ft 315 kts
2026-04-17 06:51 -40.89761 174.88449 23566 ft 319 kts
2026-04-17 06:51 -40.87635 174.89346 24141 ft 322 kts
2026-04-17 06:51 -40.85519 174.90240 24702 ft 325 kts
2026-04-17 06:52 -40.83356 174.91154 25262 ft 327 kts
2026-04-17 06:52 -40.81186 174.92072 25804 ft 329 kts
2026-04-17 06:52 -40.78998 174.92995 26308 ft 331 kts
2026-04-17 06:52 -40.76787 174.93925 26688 ft 339 kts
2026-04-17 06:53 -40.74470 174.94886 26777 ft 357 kts
2026-04-17 06:53 -40.72035 174.95890 26827 ft 377 kts
2026-04-17 06:53 -40.69467 174.96950 26840 ft 397 kts 10°
2026-04-17 06:53 -40.66770 174.98076 26844 ft 413 kts 10°
2026-04-17 06:54 -40.64028 174.99168 26847 ft 409 kts
2026-04-17 06:54 -40.61248 174.99797 26850 ft 403 kts 358°
2026-04-17 06:54 -40.58458 175.00044 26852 ft 400 kts 353°
2026-04-17 06:54 -40.55682 175.00050 26854 ft 399 kts 351°
2026-04-17 06:55 -40.52915 174.99917 26855 ft 398 kts 349°
2026-04-17 06:55 -40.50151 174.99713 26857 ft 398 kts 348°
2026-04-17 06:55 -40.48320 174.99565 26858 ft 398 kts 348°
2026-04-17 06:55 -40.44611 174.99365 26861 ft 400 kts 350°
2026-04-17 06:56 -40.41824 174.99284 26862 ft 401 kts 351°
2026-04-17 06:56 -40.39974 174.99248 26863 ft 401 kts 351°
2026-04-17 06:56 -40.37180 174.99213 26865 ft 402 kts 351°
2026-04-17 06:56 -40.34383 174.99190 26866 ft 402 kts 351°
2026-04-17 06:57 -40.31588 174.99172 26867 ft 402 kts 352°
2026-04-17 06:57 -40.27847 174.99148 26868 ft 402 kts 352°
2026-04-17 06:57 -40.25993 174.99134 26869 ft 402 kts 351°
2026-04-17 06:57 -40.23194 174.99112 26869 ft 402 kts 351°
2026-04-17 06:58 -40.20399 174.99088 26870 ft 402 kts 351°
2026-04-17 06:58 -40.17610 174.99059 26871 ft 401 kts 351°
2026-04-17 06:58 -40.14813 174.99023 26872 ft 401 kts 351°
2026-04-17 06:58 -40.12018 174.98985 26873 ft 401 kts 351°
2026-04-17 06:59 -40.09268 174.98946 26873 ft 401 kts 351°
2026-04-17 06:59 -40.06439 174.98906 26873 ft 401 kts 351°
2026-04-17 06:59 -40.03648 174.98867 26874 ft 401 kts 351°
2026-04-17 06:59 -40.00894 174.98829 26874 ft 401 kts 351°
2026-04-17 07:00 -39.98106 174.98791 26874 ft 401 kts 351°
2026-04-17 07:00 -39.95313 174.98754 26875 ft 401 kts 351°
2026-04-17 07:00 -39.92523 174.98718 26875 ft 401 kts 351°
2026-04-17 07:00 -39.89731 174.98683 26876 ft 401 kts 352°
2026-04-17 07:01 -39.86942 174.98649 26876 ft 401 kts 352°
2026-04-17 07:01 -39.84148 174.98615 26877 ft 401 kts 352°
2026-04-17 07:01 -39.81356 174.98581 26878 ft 401 kts 352°
2026-04-17 07:01 -39.78556 174.98712 26877 ft 409 kts
2026-04-17 07:02 -39.75759 174.99631 26881 ft 419 kts 12°
2026-04-17 07:02 -39.73057 175.01123 26884 ft 425 kts 20°
2026-04-17 07:02 -39.70449 175.02967 26884 ft 428 kts 25°
2026-04-17 07:02 -39.67919 175.05021 26881 ft 430 kts 28°
2026-04-17 07:03 -39.65452 175.07197 26761 ft 420 kts 30°
2026-04-17 07:03 -39.63128 175.09377 26534 ft 405 kts 31°
2026-04-17 07:03 -39.60873 175.11549 26212 ft 404 kts 31°
2026-04-17 07:03 -39.58643 175.13702 25792 ft 406 kts 31°
2026-04-17 07:04 -39.56347 175.15915 25342 ft 408 kts 31°
2026-04-17 07:04 -39.54060 175.18111 24893 ft 409 kts 31°
2026-04-17 07:04 -39.51761 175.20307 24443 ft 410 kts 31°
2026-04-17 07:04 -39.49489 175.22466 23970 ft 411 kts 31°
2026-04-17 07:05 -39.47220 175.24627 23415 ft 400 kts 31°
2026-04-17 07:05 -39.45005 175.26738 22842 ft 392 kts 31°
2026-04-17 07:05 -39.42826 175.28805 22266 ft 386 kts 31°
2026-04-17 07:05 -39.40669 175.30836 21675 ft 381 kts 31°
2026-04-17 07:06 -39.38522 175.32844 21017 ft 380 kts 31°
2026-04-17 07:06 -39.36445 175.34957 20351 ft 381 kts 34°
2026-04-17 07:06 -39.34434 175.37180 19679 ft 380 kts 36°
2026-04-17 07:06 -39.32466 175.39456 19005 ft 379 kts 38°
2026-04-17 07:07 -39.30523 175.41757 18330 ft 378 kts 38°
2026-04-17 07:07 -39.28592 175.44066 17653 ft 377 kts 38°
2026-04-17 07:07 -39.26676 175.46359 16978 ft 375 kts 38°
2026-04-17 07:07 -39.24767 175.48642 16303 ft 373 kts 38°
2026-04-17 07:08 -39.22866 175.50911 15629 ft 372 kts 38°
2026-04-17 07:08 -39.20967 175.53167 14953 ft 370 kts 38°
2026-04-17 07:08 -39.19071 175.55410 14275 ft 369 kts 38°
2026-04-17 07:08 -39.17242 175.57577 13602 ft 342 kts 38°
2026-04-17 07:09 -39.15540 175.59581 12952 ft 322 kts 37°
2026-04-17 07:09 -39.13926 175.61468 12420 ft 307 kts 37°
2026-04-17 07:09 -39.12366 175.63277 11893 ft 298 kts 37°
2026-04-17 07:09 -39.10841 175.65036 11367 ft 292 kts 37°
2026-04-17 07:10 -39.09357 175.66748 10974 ft 285 kts 37°
2026-04-17 07:10 -39.07909 175.68465 10668 ft 282 kts 40°
2026-04-17 07:10 -39.06638 175.70398 10293 ft 285 kts 49°
2026-04-17 07:10 -39.05519 175.72475 9903 ft 286 kts 53°
2026-04-17 07:11 -39.04437 175.74657 9499 ft 286 kts 54°
2026-04-17 07:11 -39.03400 175.76813 8997 ft 288 kts 55°
2026-04-17 07:11 -39.02345 175.79015 8439 ft 290 kts 54°
2026-04-17 07:11 -39.01272 175.81225 7813 ft 292 kts 54°
2026-04-17 07:12 -39.00195 175.83419 7355 ft 287 kts 54°
2026-04-17 07:12 -38.99132 175.85565 6951 ft 282 kts 54°
2026-04-17 07:12 -38.97998 175.87595 6557 ft 277 kts 47°
2026-04-17 07:12 -38.96718 175.89420 6177 ft 274 kts 42°
2026-04-17 07:13 -38.95367 175.91139 5778 ft 272 kts 40°
2026-04-17 07:13 -38.94000 175.92815 5378 ft 271 kts 40°
2026-04-17 07:13 -38.92646 175.94467 5216 ft 263 kts 41°
2026-04-17 07:13 -38.91342 175.96083 4905 ft 257 kts 41°
2026-04-17 07:14 -38.90152 175.97591 4597 ft 225 kts 41°
2026-04-17 07:14 -38.89038 175.99014 4253 ft 230 kts 41°
2026-04-17 07:14 -38.87888 176.00480 3877 ft 235 kts 42°
2026-04-17 07:14 -38.86731 176.01955 3664 ft 232 kts 42°
2026-04-17 07:15 -38.85593 176.03405 3483 ft 229 kts 43°
2026-04-17 07:15 -38.84407 176.04739 3305 ft 225 kts 29°
2026-04-17 07:15 -38.83010 176.05556 3143 ft 211 kts 17°
2026-04-17 07:15 -38.81706 176.06071 2930 ft 187 kts 14°
2026-04-17 07:16 -38.80527 176.06557 2515 ft 172 kts 12°
2026-04-17 07:16 -38.79391 176.06889 2108 ft 164 kts
2026-04-17 07:16 -38.78293 176.07086 2152 ft 145 kts
2026-04-17 07:16 -38.77426 176.07399 1968 ft 122 kts 12°
2026-04-17 07:17 -38.76624 176.07645 1803 ft 116 kts
2026-04-17 07:17 -38.75853 176.07907 1643 ft 114 kts 12°
2026-04-17 07:17 -38.74372 176.08393 1340 ft 97 kts 11°
2026-04-17 07:18 -38.74011 176.08505 1339 ft 16 kts 330°
2026-04-17 07:18 -38.73973 176.08390 1339 ft 12 kts 311°
2026-04-17 07:18 -38.73939 176.08351 1339 ft 0 kts 13°